TIME,DELAY(SENSOR),PRES,OXYGEN,RAWTEMP,T(OPTODE),TCPHASE,FLUOR,BETA(BETA700),BETA(BETA412),BETA(BETA440),CDOM,C(CSC),ED(ED411.90),ED(ED443.80),ED(ED489.40),ED(ED554.70),LU(LU412.20),LU(LU443.80),LU(LU489.40),LU(LU555.00),COMP,TILTX,TILTY,CHECK
1353536221,5806,861.8099975585938000,151.0740966796875000,414.6516113281250000,10.1556396484375000,39.9141693115234400,53,109,59,57,64,13469,2146963264,2147516973,2147286518,2147503570,2147091154,2146934546,2147695268,2147121261,581,-1,8,52196
1353539817,5806,983.8400268554688000,181.7655944824218800,480.6541137695312500,8.1284656524658200,38.7436790466308600,51,102,59,59,65,13483,2146963721,2147518701,2147289746,2147513590,2147092982,2146928768,2147715492,2147123264,2529,-1,9,61851
1353543417,5803,998.7000122070312000,193.3307952880859400,490.5989074707031000,7.8208627700805660,38.1539001464843750,52,203,58,56,66,13475,2146964388,2147514258,2147294290,2147516068,2147091355,2146924269,2147716086,2147119277,3412,-1,8,17712
1353547017,5809,1003.4199829101562000,193.7655029296875000,490.5806884765625000,7.8214268684387210,38.1257591247558600,54,104,59,57,64,13471,2146960731,2147517376,2147296466,2147519195,2147089536,2146925385,2147714998,2147120777,3574,-1,8,1726
1353550617,5806,1009.9299926757812000,193.5960998535156200,491.4797973632812500,7.7935857772827150,38.1532211303710940,53,100,59,58,65,13476,2146961545,2147517979,2147296338,2147517824,2147093577,2146931648,2147718080,2147118208,3594,0,8,28726
1353554217,5806,1011.2299804687500000,195.2344055175781200,492.7643127441406000,7.7538008689880370,38.0708007812500000,60,100,58,57,65,13478,2146964452,2147517787,2147294226,2147518345,2147090459,2146927698,2147718464,2147120100,317,-1,8,39707
1353557817,5810,1011.6400146484375000,196.2541961669922000,494.4018859863281000,7.7030668258666990,38.0345802307128900,52,99,59,57,65,13475,2146965924,2147518400,2147295186,2147517705,2147091337,2146927396,2147720320,2147122605,67,-1,9,15282
1353561417,5807,1011.5200195312500000,196.4752044677734400,494.4855957031250000,7.7004728317260740,38.0221290588378900,52,100,58,58,66,13478,2146964461,2147518253,2147297737,2147518482,2147092105,2146930112,2147717595,2147121060,3283,-1,9,5249
1353565017,5806,1010.3499755859375000,196.4461975097656200,496.6047973632812500,7.6347889900207520,38.0612602233886700,52,102,58,57,64,13477,2146963830,2147519277,2147296009,2147518080,2147090761,2146928923,2147720950,2147122029,3000,-1,9,31362
1353568617,5806,1012.4500122070312000,199.3475036621093800,496.3671875000000000,7.6421527862548830,37.8757400512695300,52,101,58,58,65,13475,2146964278,2147518006,2147294628,2147516626,2147092114,2146927277,2147722157,2147118290,597,-1,8,43428
1353572217,5807,1006.3900146484375000,200.2445983886718800,499.0375061035156000,7.5593519210815430,37.8677291870117200,50,100,58,57,64,13476,2146963949,2147516708,2147294400,2147518171,2147088384,2146926710,2147719542,2147118546,3247,-1,9,46589
1353575817,5807,1008.5800170898438000,200.6757965087890600,499.3778076171875000,7.5487971305847170,37.8460502624511700,52,101,58,57,65,13472,2146962989,2147517110,2147293787,2147519689,2147092873,2146927753,2147720905,2147121755,3406,-1,9,84
1353579417,5807,1008.3400268554688000,200.8161926269531200,500.8279113769531000,7.5038061141967770,37.8635902404785160,52,99,57,57,64,13475,2146961508,2147517019,2147294226,2147517275,2147092141,2146926290,2147716937,2147118610,365,-1,8,45666
1353583017,5804,1012.9199829101562000,200.7409973144531200,499.2739868164062500,7.5520148277282715,37.8406295776367200,52,100,59,57,65,13471,2146961773,2147518162,2147292864,2147515428,2147094656,2146930770,2147719369,2147120905,3478,-1,9,55245
1353586617,5808,1015.1900024414062000,200.6239929199218800,499.3825073242187500,7.5486497879028320,37.8498497009277340,52,101,57,58,64,13472,2146963090,2147519286,2147291849,2147518080,2147091739,2146926729,2147717056,2147120832,11,-1,9,20429
1353590217,5807,1017.8400268554688000,200.7023010253906200,498.8185119628906000,7.5661458969116210,37.8351402282714840,52,100,58,56,66,13471,2146963830,2147516772,2147295076,2147518893,2147091446,2146925577,2147716982,2147120950,130,-1,9,19377
1353593817,5807,1014.2800292968750000,199.5536041259765600,497.9269104003906000,7.5937938690185550,37.8910102844238300,52,101,59,58,64,13465,2146962358,2147518454,2147297188,2147514029,2147092507,2146929225,2147721152,2147119213,562,-1,8,32534
1353597417,5806,1016.5800170898438000,200.6793975830078000,498.7745971679687500,7.5675048828125000,37.8360595703125000,51,100,59,57,65,13466,2146964946,2147519789,2147296374,2147517586,2147091072,2146925211,2147718409,2147119798,463,-1,8,39858
1353601017,5807,1015.3300170898438000,200.7131958007812500,498.9100952148437500,7.5633020401000980,37.8355903625488300,53,103,58,57,64,13467,2146959789,2147520877,2147301074,2147519524,2147092781,2146924434,2147718345,2147119140,758,-1,8,35655
1353604617,5806,1015.1099853515625000,200.6217956542968800,498.9158020019531000,7.5631251335144040,37.8421516418457000,53,101,59,57,64,13465,2146961088,2147518171,2147296374,2147515748,2147092763,2146930066,2147719616,2147119881,606,-1,9,26986
1353608217,5807,1011.8699951171875000,199.1672058105468800,500.4500122070312500,7.5155329704284670,37.9586601257324200,52,99,59,57,64,13467,2146956662,2147517632,2147296740,2147515062,2147093522,2146927652,2147718683,2147118628,376,0,8,3240
1353611817,5805,1008.3300170898438000,201.4577941894531200,503.1339111328125000,7.4322361946105960,37.8640098571777340,52,100,61,57,65,13464,2146964553,2147517714,2147295442,2147517138,2147090587,2146930697,2147715081,2147119040,2995,-1,9,29294
1353615417,5806,1010.9000244140625000,202.2492065429687500,502.7676086425781000,7.4436049461364750,37.8097114562988300,52,100,59,57,65,13465,2146961142,2147520173,2147299940,2147518336,2147089819,2146930002,2147714560,2147119414,3463,-1,9,8506
1353619017,5804,1005.0200195312500000,204.2834014892578000,504.8357849121094000,7.3793897628784180,37.7217903137207000,53,101,59,55,66,13465,2146959744,2147519305,2147296667,2147518747,2147093248,2146922313,2147718272,2147119241,3189,-1,9,27957
1353622617,5805,1005.6799926757812000,204.5812072753906200,505.2016906738281000,7.3680238723754880,37.7105216979980500,52,98,59,57,65,13465,2146962633,2147520192,2147296795,2147519113,2147089334,2146927241,2147717531,2147120091,3107,-1,8,53467
1353626217,5805,1006.1400146484375000,203.7037963867187500,503.8258972167969000,7.4107480049133300,37.7393608093261700,52,100,57,57,63,13460,2146962532,2147520786,2147297956,2147518326,2147090962,2146927305,2147718381,2147120731,3230,-1,9,44682
1353629817,5803,1008.4899902343750000,204.1154937744140600,504.4919128417969000,7.3900699615478520,37.7262382507324200,52,100,57,57,64,13460,2146960557,2147521563,2147298084,2147516324,2147093677,2146923584,2147719762,2147122706,3547,-1,8,49959
1353633417,5804,1014.8800048828125000,202.4902954101562500,502.7298889160156000,7.4447751045227050,37.7936210632324200,52,104,58,57,65,13463,2146961764,2147519917,2147295981,2147517065,2147093120,2146929974,2147715309,2147118518,3540,-1,9,13075
1353637017,5805,1019.9000244140625000,201.6443023681640600,501.2002868652344000,7.4922509193420410,37.8192100524902340,52,98,59,57,64,13459,2146959862,2147518857,2147297536,2147517997,2147093769,2146930285,2147718281,2147123044,3037,-1,9,25776
1353640617,5805,1012.0900268554688000,202.1325073242187500,502.2614135742187500,7.4593181610107420,37.8077507019043000,53,101,57,57,65,13454,2146964178,2147517952,2147297773,2147518985,2147089371,2146924242,2147718912,2147117046,3269,-1,9,31307
1353644217,5809,1013.3699951171875000,202.3202972412109400,502.3179931640625000,7.4575629234313965,37.7976112365722660,52,101,59,57,65,13453,2146963401,2147516854,2147296941,2147520566,2147092461,2146922816,2147717760,2147120192,7,-1,8,20618
1353647817,5808,1005.7000122070312000,203.9185028076172000,504.7381896972656000,7.3824200630187990,37.7421989440918000,52,102,57,56,65,13438,2146962313,2147514989,2147295597,2147515968,2147093083,2146924068,2147721344,2147120256,514,-1,8,12147
1353651417,5808,1009.5700073242188000,204.8997955322265600,505.0396118164062500,7.3730578422546390,37.6882019042968750,51,99,59,57,64,13456,2146960292,2147519204,2147296365,2147521307,2147091593,2146918610,2147721490,2147120685,544,-1,8,39226
1353655017,5807,1006.8499755859375000,204.5960998535156200,507.1626892089844000,7.3071060180664060,37.7436599731445300,53,101,58,57,64,13457,2146962523,2147515666,2147299465,2147517467,2147091108,2146920557,2147719305,2147118610,427,-1,8,19181
1353658617,5805,1001.3699951171875000,205.6408996582031200,507.6223144531250000,7.2928252220153810,37.6892204284668000,52,102,59,56,64,13450,2146962313,2147520384,2147295734,2147518326,2147092288,2146924754,2147718482,2147119296,2886,-1,9,57270
1353662217,5804,1005.3400268554688000,206.6206970214843800,507.6224060058594000,7.2928190231323240,37.6308403015136700,53,100,58,55,65,13456,2146963346,2147515264,2147297316,2147521700,2147094381,2146926628,2147718381,2147123529,3273,-1,9,22654
1353665817,5808,1007.5499877929688000,206.5865936279297000,507.5120849609375000,7.2962470054626465,37.6299781799316400,52,101,58,56,66,13453,2146964096,2147518738,2147297252,2147517083,2147091474,2146927652,2147720658,2147120036,3179,-1,9,5278
1353669417,5808,1012.1099853515625000,205.5933990478515600,506.3439941406250000,7.3325409889221190,37.6696090698242200,53,101,58,57,64,13434,2146963446,2147515026,2147298203,2147518491,2147089472,2146924937,2147719899,2147117750,3580,-1,9,34631
1353673017,5806,1015.7500000000000000,203.6484069824218800,504.9794006347656000,7.3749299049377440,37.7630195617675800,52,100,58,56,65,13450,2146962724,2147518061,2147296612,2147517997,2147091172,2146930368,2147720155,2147120969,3381,-1,9,53864
1353676617,5805,1014.9000244140625000,203.1672058105468800,504.0929870605469000,7.4024572372436520,37.7765007019043000,52,99,58,56,66,13453,2146964260,2147516608,2147297700,2147517485,2147092644,2146924964,2147719424,2147121828,3495,-1,8,780
1353679855,5807,1011.3300170898438000,202.6844024658203000,504.5338134765625000,7.3887691497802730,37.8134613037109400,52,100,58,56,64,13453,2146965732,2147520429,2147292809,2147517376,2147092224,2146926372,2147718912,2147119707,155,-1,8,62500
